| time (UTC) | temp F | wind direction | speed MPH | gust MPH | rain 1hr in | rain 24hr in | rain mn in | humidity % | barometer mb |
| 20260509115029 | 47 | 32 | 4.0 | 11.0 | 0.00 | 0.00 | 0.00 | 85 | 1005.1 |
| 20260509114524 | 47 | 30 | 5.0 | 13.0 | 0.00 | 0.00 | 0.00 | 85 | 1005.0 |
| 20260509114023 | 47 | 16 | 6.0 | 13.0 | 0.00 | 0.00 | 0.00 | 85 | 1005.0 |
| 20260509113524 | 47 | 46 | 6.0 | 13.0 | 0.00 | 0.00 | 0.00 | 85 | 1004.8 |
| 20260509113020 | 48 | 352 | 6.0 | 14.0 | 0.00 | 0.00 | 0.00 | 85 | 1004.7 |
| 20260509112518 | 48 | 347 | 5.0 | 15.0 | 0.00 | 0.00 | 0.00 | 86 | 1004.6 |
| 20260509112018 | 48 | 16 | 2.0 | 15.0 | 0.00 | 0.00 | 0.00 | 87 | 1004.4 |
| 20260509111516 | 48 | 15 | 5.0 | 12.0 | 0.00 | 0.00 | 0.00 | 87 | 1004.3 |
| 20260509111015 | 48 | 29 | 3.0 | 9.0 | 0.00 | 0.00 | 0.00 | 88 | 1004.2 |
| 20260509110513 | 48 | 12 | 2.0 | 11.0 | 0.00 | 0.00 | 0.00 | 89 | 1004.0 |
| 20260509110014 | 48 | 355 | 5.0 | 11.0 | 0.00 | 0.00 | 0.00 | 90 | 1004.0 |
| 20260509105513 | 48 | 343 | 3.0 | 9.0 | 0.00 | 0.00 | 0.00 | 90 | 1003.8 |
| 20260509105013 | 48 | 316 | 3.0 | 9.0 | 0.00 | 0.00 | 0.00 | 89 | 1003.7 |
| 20260509104511 | 48 | 326 | 3.0 | 9.0 | 0.00 | 0.00 | 0.00 | 89 | 1003.5 |
| 20260509104012 | 48 | 326 | 2.0 | 7.0 | 0.00 | 0.00 | 0.00 | 89 | 1003.5 |
| 20260509103509 | 48 | 326 | 2.0 | 7.0 | 0.00 | 0.00 | 0.00 | 89 | 1003.4 |
| 20260509103008 | 48 | 307 | 1.0 | 6.0 | 0.00 | 0.00 | 0.00 | 89 | 1003.2 |
| 20260509102512 | 48 | 274 | 2.0 | 5.0 | 0.00 | 0.00 | 0.00 | 88 | 1003.1 |
| 20260509102108 | 48 | 309 | 1.0 | 3.0 | 0.00 | 0.00 | 0.00 | 88 | 1003.0 |
| 20260509101511 | 48 | 303 | 1.0 | 5.0 | 0.00 | 0.00 | 0.00 | 88 | 1003.0 |
| 20260509101008 | 48 | 283 | 1.0 | 5.0 | 0.00 | 0.00 | 0.00 | 88 | 1003.0 |
| 20260509100507 | 48 | 284 | 2.0 | 5.0 | 0.00 | 0.00 | 0.00 | 88 | 1002.9 |
| 20260509100006 | 48 | 288 | 2.0 | 4.0 | 0.00 | 0.00 | 0.00 | 88 | 1003.0 |
| 20260509095507 | 48 | 300 | 1.0 | 4.0 | 0.00 | 0.00 | 0.00 | 87 | 1002.9 |
| 20260509095005 | 48 | 311 | 0.0 | 3.0 | 0.00 | 0.00 | 0.00 | 87 | 1003.0 |
| 20260509094504 | 48 | 299 | 1.0 | 4.0 | 0.00 | 0.00 | 0.00 | 87 | 1002.9 |
| 20260509094004 | 48 | 319 | 0.0 | 4.0 | 0.00 | 0.00 | 0.00 | 86 | 1003.0 |
| 20260509093503 | 48 | 345 | 0.0 | 2.0 | 0.00 | 0.00 | 0.00 | 85 | 1002.9 |
| 20260509093003 | 48 | 318 | 0.0 | 3.0 | 0.00 | 0.00 | 0.00 | 84 | 1002.8 |
| 20260509092501 | 49 | 347 | 0.0 | 6.0 | 0.00 | 0.00 | 0.00 | 83 | 1002.8 |
| 20260509092000 | 49 | 41 | 0.0 | 6.0 | 0.00 | 0.00 | 0.00 | 82 | 1002.9 |
| 20260509091600 | 49 | 191 | 1.0 | 4.0 | 0.00 | 0.00 | 0.00 | 81 | 1003.1 |
| 20260509091100 | 50 | 262 | 1.0 | 4.0 | 0.00 | 0.00 | 0.00 | 79 | 1003.3 |
| 20260509090559 | 50 | 316 | 0.0 | 4.0 | 0.00 | 0.00 | 0.00 | 78 | 1003.4 |
| 20260509085557 | 50 | 27 | 2.0 | 7.0 | 0.00 | 0.00 | 0.00 | 76 | 1003.5 |
| 20260509085056 | 50 | 67 | 3.0 | 10.0 | 0.00 | 0.00 | 0.00 | 76 | 1003.4 |
| 20260509084608 | 50 | 44 | 5.0 | 11.0 | 0.00 | 0.00 | 0.00 | 75 | 1003.3 |
| 20260509084056 | 50 | 51 | 3.0 | 7.0 | 0.00 | 0.00 | 0.00 | 74 | 1003.3 |
| 20260509083553 | 50 | 26 | 2.0 | 10.0 | 0.00 | 0.00 | 0.00 | 73 | 1003.2 |
| 20260509083054 | 51 | 47 | 4.0 | 12.0 | 0.00 | 0.00 | 0.00 | 73 | 1003.2 |
| 20260509082553 | 51 | 39 | 7.0 | 14.0 | 0.00 | 0.00 | 0.00 | 72 | 1003.2 |
| 20260509082053 | 51 | 71 | 9.0 | 14.0 | 0.00 | 0.00 | 0.00 | 72 | 1003.2 |
| 20260509081557 | 51 | 46 | 9.0 | 13.0 | 0.00 | 0.00 | 0.00 | 70 | 1003.2 |
| 20260509081051 | 51 | 64 | 8.0 | 11.0 | 0.00 | 0.00 | 0.00 | 69 | 1003.2 |
| 20260509080549 | 52 | 48 | 4.0 | 9.0 | 0.00 | 0.00 | 0.00 | 67 | 1003.2 |
| 20260509080056 | 52 | 58 | 6.0 | 9.0 | 0.00 | 0.00 | 0.00 | 66 | 1003.0 |
| 20260509075548 | 51 | 63 | 6.0 | 10.0 | 0.00 | 0.00 | 0.00 | 65 | 1003.0 |
| 20260509075048 | 51 | 40 | 7.0 | 10.0 | 0.00 | 0.00 | 0.00 | 63 | 1003.0 |
| 20260509074547 | 51 | 54 | 6.0 | 9.0 | 0.00 | 0.00 | 0.00 | 58 | 1002.9 |
| 20260509074048 | 51 | 64 | 4.0 | 8.0 | 0.00 | 0.00 | 0.00 | 56 | 1003.2 |
| 20260509073546 | 51 | 59 | 3.0 | 9.0 | 0.00 | 0.00 | 0.00 | 55 | 1003.2 |
| 20260509073144 | 51 | 46 | 2.0 | 9.0 | 0.00 | 0.00 | 0.00 | 55 | 1003.0 |
| 20260509072543 | 51 | 354 | 1.0 | 5.0 | 0.00 | 0.00 | 0.00 | 54 | 1002.9 |
| 20260509072041 | 51 | 44 | 1.0 | 6.0 | 0.00 | 0.00 | 0.00 | 53 | 1003.0 |
| 20260509071546 | 51 | 26 | 1.0 | 8.0 | 0.00 | 0.00 | 0.00 | 53 | 1002.9 |
| 20260509071041 | 51 | 46 | 5.0 | 8.0 | 0.00 | 0.00 | 0.00 | 53 | 1002.8 |
| 20260509070544 | 51 | 358 | 2.0 | 8.0 | 0.00 | 0.00 | 0.00 | 53 | 1002.7 |
| 20260509070042 | 50 | 333 | 1.0 | 5.0 | 0.00 | 0.00 | 0.00 | 58 | 1002.5 |
| 20260509065538 | 50 | 291 | 1.0 | 3.0 | 0.00 | 0.00 | 0.00 | 57 | 1002.2 |
| 20260509065038 | 50 | 283 | 2.0 | 3.0 | 0.00 | 0.00 | 0.00 | 55 | 1002.3 |
| 20260509064551 | 50 | 287 | 0.0 | 3.0 | 0.00 | 0.00 | 0.00 | 56 | 1002.4 |
| 20260509064038 | 50 | 284 | 1.0 | 3.0 | 0.00 | 0.00 | 0.00 | 52 | 1002.5 |
| 20260509063536 | 50 | 283 | 1.0 | 3.0 | 0.00 | 0.00 | 0.00 | 49 | 1002.5 |
| 20260509063038 | 50 | 281 | 0.0 | 2.0 | 0.00 | 0.00 | 0.00 | 50 | 1002.5 |
| 20260509062539 | 50 | 294 | 0.0 | 1.0 | 0.00 | 0.00 | 0.00 | 51 | 1002.4 |
| 20260509062035 | 50 | 290 | 0.0 | 1.0 | 0.00 | 0.00 | 0.00 | 48 | 1002.4 |
| 20260509061543 | 50 | 285 | 0.0 | 1.0 | 0.00 | 0.00 | 0.00 | 48 | 1002.4 |
| 20260509061038 | 50 | 269 | 0.0 | 1.0 | 0.00 | 0.00 | 0.00 | 48 | 1002.4 |
| 20260509060534 | 50 | 269 | 0.0 | 1.0 | 0.00 | 0.00 | 0.00 | 48 | 1002.4 |
| 20260509060036 | 50 | 269 | 0.0 | 1.0 | 0.00 | 0.00 | 0.00 | 48 | 1002.4 |
| 20260509055536 | 49 | 277 | 0.0 | 2.0 | 0.00 | 0.00 | 0.00 | 47 | 1002.3 |
| 20260509055033 | 50 | 240 | 1.0 | 2.0 | 0.00 | 0.00 | 0.00 | 48 | 1002.3 |
| 20260509054537 | 50 | 273 | 0.0 | 2.0 | 0.00 | 0.00 | 0.00 | 49 | 1002.4 |
| 20260509054032 | 50 | 279 | 0.0 | 3.0 | 0.00 | 0.00 | 0.00 | 47 | 1002.4 |
| 20260509053531 | 50 | 263 | 0.0 | 3.0 | 0.00 | 0.00 | 0.00 | 46 | 1002.3 |
| 20260509053031 | 50 | 280 | 0.0 | 3.0 | 0.00 | 0.00 | 0.00 | 46 | 1002.3 |
| 20260509052530 | 50 | 277 | 1.0 | 4.0 | 0.00 | 0.00 | 0.00 | 46 | 1002.3 |
| 20260509052032 | 50 | 242 | 2.0 | 4.0 | 0.00 | 0.00 | 0.00 | 45 | 1002.3 |
| 20260509051528 | 50 | 259 | 0.0 | 2.0 | 0.00 | 0.00 | 0.00 | 45 | 1002.6 |
| 20260509051028 | 50 | 231 | 0.0 | 2.0 | 0.00 | 0.00 | 0.00 | 45 | 1002.6 |
| 20260509050529 | 50 | 232 | 0.0 | 2.0 | 0.00 | 0.00 | 0.00 | 44 | 1002.9 |
| 20260509050028 | 51 | 236 | 0.0 | 2.0 | 0.00 | 0.00 | 0.00 | 44 | 1002.8 |
| 20260509045524 | 51 | 253 | 0.0 | 1.0 | 0.00 | 0.00 | 0.00 | 44 | 1002.9 |
| 20260509045024 | 51 | 250 | 0.0 | 2.0 | 0.00 | 0.00 | 0.00 | 43 | 1003.0 |
| 20260509044524 | 51 | 266 | 0.0 | 2.0 | 0.00 | 0.00 | 0.00 | 43 | 1003.1 |
| 20260509044024 | 51 | 242 | 0.0 | 2.0 | 0.00 | 0.00 | 0.00 | 44 | 1003.0 |
| 20260509043523 | 51 | 243 | 1.0 | 2.0 | 0.00 | 0.00 | 0.00 | 44 | 1002.9 |
| 20260509043023 | 51 | 262 | 0.0 | 1.0 | 0.00 | 0.00 | 0.00 | 48 | 1003.2 |
| 20260509042523 | 51 | 277 | 0.0 | 1.0 | 0.00 | 0.00 | 0.00 | 50 | 1003.4 |
| 20260509042024 | 52 | 259 | 0.0 | 1.0 | 0.00 | 0.00 | 0.00 | 56 | 1003.3 |
| 20260509041523 | 53 | 274 | 0.0 | 1.0 | 0.00 | 0.00 | 0.00 | 57 | 1003.4 |
| 20260509041024 | 53 | 284 | 0.0 | 1.0 | 0.00 | 0.00 | 0.00 | 46 | 1003.4 |
| 20260509040525 | 54 | 284 | 0.0 | 1.0 | 0.00 | 0.00 | 0.00 | 41 | 1003.4 |
| 20260509040034 | 54 | 285 | 0.0 | 2.0 | 0.00 | 0.00 | 0.00 | 40 | 1003.4 |
| 20260509035522 | 54 | 293 | 0.0 | 1.0 | 0.00 | 0.00 | 0.00 | 39 | 1003.4 |
| 20260509035023 | 54 | 309 | 0.0 | 1.0 | 0.00 | 0.00 | 0.00 | 38 | 1003.5 |
| 20260509034522 | 55 | 311 | 0.0 | 1.0 | 0.00 | 0.00 | 0.00 | 37 | 1003.7 |
| 20260509034021 | 55 | 300 | 0.0 | 2.0 | 0.00 | 0.00 | 0.00 | 37 | 1003.8 |
| 20260509033521 | 55 | 321 | 0.0 | 2.0 | 0.00 | 0.00 | 0.00 | 37 | 1003.7 |
| 20260509033021 | 55 | 311 | 0.0 | 2.0 | 0.00 | 0.00 | 0.00 | 36 | 1003.8 |
| 20260509032521 | 56 | 333 | 0.0 | 3.0 | 0.00 | 0.00 | 0.00 | 36 | 1003.7 |
| 20260509032019 | 56 | 345 | 0.0 | 4.0 | 0.00 | 0.00 | 0.00 | 35 | 1003.7 |
| 20260509031527 | 56 | 360 | 1.0 | 4.0 | 0.00 | 0.00 | 0.00 | 35 | 1003.7 |
| 20260509031020 | 56 | 336 | 0.0 | 5.0 | 0.00 | 0.00 | 0.00 | 35 | 1003.7 |
| 20260509030520 | 57 | 351 | 0.0 | 5.0 | 0.00 | 0.00 | 0.00 | 34 | 1003.6 |
| 20260509030020 | 57 | 333 | 1.0 | 5.0 | 0.00 | 0.00 | 0.00 | 34 | 1003.6 |
| 20260509025519 | 57 | 354 | 1.0 | 4.0 | 0.00 | 0.00 | 0.00 | 34 | 1003.6 |
| 20260509025019 | 57 | 16 | 1.0 | 5.0 | 0.00 | 0.00 | 0.00 | 34 | 1003.5 |
| 20260509024519 | 57 | 10 | 0.0 | 6.0 | 0.00 | 0.00 | 0.00 | 34 | 1003.5 |
| 20260509024022 | 58 | 19 | 1.0 | 8.0 | 0.00 | 0.00 | 0.00 | 33 | 1003.4 |
| 20260509023519 | 58 | 4 | 3.0 | 8.0 | 0.00 | 0.00 | 0.00 | 33 | 1003.4 |
| 20260509023018 | 58 | 19 | 2.0 | 7.0 | 0.00 | 0.00 | 0.00 | 33 | 1003.4 |
| 20260509022518 | 59 | 352 | 3.0 | 7.0 | 0.00 | 0.00 | 0.00 | 33 | 1003.4 |
| 20260509022018 | 59 | 55 | 2.0 | 10.0 | 0.00 | 0.00 | 0.00 | 33 | 1003.4 |
| 20260509021520 | 59 | 1 | 4.0 | 11.0 | 0.00 | 0.00 | 0.00 | 33 | 1003.4 |
| 20260509021017 | 59 | 1 | 4.0 | 11.0 | 0.00 | 0.00 | 0.00 | 33 | 1003.4 |
| 20260509020516 | 60 | 345 | 4.0 | 11.0 | 0.00 | 0.00 | 0.00 | 33 | 1003.3 |
| 20260509020017 | 60 | 336 | 4.0 | 15.0 | 0.00 | 0.00 | 0.00 | 32 | 1003.3 |
| 20260509015520 | 60 | 340 | 6.0 | 15.0 | 0.00 | 0.00 | 0.00 | 32 | 1003.3 |
| 20260509015016 | 60 | 330 | 6.0 | 12.0 | 0.00 | 0.00 | 0.00 | 33 | 1003.2 |
| 20260509014533 | 61 | 8 | 6.0 | 11.0 | 0.00 | 0.00 | 0.00 | 33 | 1003.1 |
| 20260509014015 | 61 | 31 | 5.0 | 11.0 | 0.00 | 0.00 | 0.00 | 33 | 1002.9 |
| 20260509013517 | 62 | 101 | 4.0 | 12.0 | 0.00 | 0.00 | 0.00 | 32 | 1002.9 |
| 20260509013016 | 62 | 333 | 5.0 | 13.0 | 0.00 | 0.00 | 0.00 | 32 | 1002.8 |
| 20260509012515 | 62 | 322 | 5.0 | 14.0 | 0.00 | 0.00 | 0.00 | 32 | 1002.6 |
| 20260509012015 | 63 | 328 | 6.0 | 15.0 | 0.00 | 0.00 | 0.00 | 31 | 1002.5 |
| 20260509011515 | 63 | 334 | 7.0 | 15.0 | 0.00 | 0.00 | 0.00 | 31 | 1002.5 |
| 20260509011015 | 63 | 358 | 8.0 | 19.0 | 0.00 | 0.00 | 0.00 | 31 | 1002.4 |
| 20260509010514 | 64 | 321 | 6.0 | 19.0 | 0.00 | 0.00 | 0.00 | 30 | 1002.4 |
| 20260509010014 | 64 | 318 | 9.0 | 15.0 | 0.00 | 0.00 | 0.00 | 30 | 1002.3 |
| 20260509005516 | 65 | 345 | 7.0 | 16.0 | 0.00 | 0.00 | 0.00 | 30 | 1002.3 |
| 20260509005014 | 65 | 302 | 6.0 | 15.0 | 0.00 | 0.00 | 0.00 | 30 | 1002.2 |
| 20260509004515 | 66 | 312 | 6.0 | 17.0 | 0.00 | 0.00 | 0.00 | 29 | 1002.1 |
| 20260509004014 | 66 | 335 | 8.0 | 17.0 | 0.00 | 0.00 | 0.00 | 28 | 1002.1 |
| 20260509003513 | 66 | 316 | 5.0 | 14.0 | 0.00 | 0.00 | 0.00 | 28 | 1002.0 |
| 20260509003013 | 67 | 332 | 5.0 | 10.0 | 0.00 | 0.00 | 0.00 | 28 | 1001.9 |
| 20260509002513 | 67 | 349 | 2.0 | 12.0 | 0.00 | 0.00 | 0.00 | 28 | 1001.9 |
| 20260509002013 | 67 | 320 | 4.0 | 17.0 | 0.00 | 0.00 | 0.00 | 27 | 1001.9 |
| 20260509001512 | 67 | 335 | 9.0 | 17.0 | 0.00 | 0.00 | 0.00 | 26 | 1001.9 |
| 20260509001012 | 67 | 316 | 7.0 | 17.0 | 0.00 | 0.00 | 0.00 | 26 | 1001.9 |
| 20260509000511 | 67 | 276 | 6.0 | 21.0 | 0.00 | 0.00 | 0.00 | 25 | 1001.8 |
| 20260509000012 | 67 | 30 | 10.0 | 21.0 | 0.00 | 0.00 | 0.00 | 25 | 1001.8 |
| 20260508235515 | 68 | 297 | 5.0 | 18.0 | 0.00 | 0.00 | 0.00 | 25 | 1002.0 |
| 20260508235011 | 68 | 323 | 10.0 | 18.0 | 0.00 | 0.00 | 0.00 | 25 | 1001.8 |
| 20260508234510 | 68 | 303 | 8.0 | 19.0 | 0.00 | 0.00 | 0.00 | 25 | 1001.8 |
| 20260508234013 | 68 | 284 | 9.0 | 19.0 | 0.00 | 0.00 | 0.00 | 24 | 1001.8 |
| 20260508233514 | 68 | 299 | 6.0 | 17.0 | 0.00 | 0.00 | 0.00 | 24 | 1001.8 |
| 20260508233010 | 68 | 333 | 8.0 | 16.0 | 0.00 | 0.00 | 0.00 | 24 | 1001.9 |
| 20260508232508 | 68 | 26 | 7.0 | 20.0 | 0.00 | 0.00 | 0.00 | 25 | 1001.8 |
| 20260508232008 | 68 | 336 | 8.0 | 20.0 | 0.00 | 0.00 | 0.00 | 25 | 1001.8 |
| 20260508231508 | 67 | 312 | 9.0 | 18.0 | 0.00 | 0.00 | 0.00 | 25 | 1001.9 |
| 20260508231009 | 67 | 315 | 6.0 | 20.0 | 0.00 | 0.00 | 0.00 | 25 | 1001.9 |
| 20260508230507 | 68 | 273 | 7.0 | 20.0 | 0.00 | 0.00 | 0.00 | 24 | 1002.0 |
| 20260508230006 | 68 | 320 | 6.0 | 14.0 | 0.00 | 0.00 | 0.00 | 25 | 1001.8 |
| 20260508225506 | 68 | 299 | 5.0 | 17.0 | 0.00 | 0.00 | 0.00 | 25 | 1001.8 |
| 20260508225005 | 69 | 319 | 8.0 | 17.0 | 0.00 | 0.00 | 0.00 | 24 | 1001.8 |
| 20260508224505 | 70 | 328 | 7.0 | 16.0 | 0.00 | 0.00 | 0.00 | 25 | 1001.8 |
| 20260508224003 | 69 | 16 | 4.0 | 19.0 | 0.00 | 0.00 | 0.00 | 25 | 1001.7 |
| 20260508223504 | 69 | 291 | 4.0 | 24.0 | 0.00 | 0.00 | 0.00 | 26 | 1001.8 |
| 20260508223005 | 69 | 262 | 13.0 | 24.0 | 0.00 | 0.00 | 0.00 | 25 | 1001.8 |
| 20260508222501 | 69 | 255 | 9.0 | 20.0 | 0.00 | 0.00 | 0.00 | 26 | 1001.8 |
| 20260508222003 | 70 | 333 | 5.0 | 27.0 | 0.00 | 0.00 | 0.00 | 25 | 1001.9 |
| 20260508221600 | 69 | 273 | 13.0 | 27.0 | 0.00 | 0.00 | 0.00 | 25 | 1001.8 |
| 20260508221100 | 70 | 311 | 7.0 | 15.0 | 0.00 | 0.00 | 0.00 | 25 | 1001.8 |
| 20260508220600 | 70 | 20 | 6.0 | 13.0 | 0.00 | 0.00 | 0.00 | 24 | 1001.9 |
| 20260508220120 | 70 | 144 | 3.0 | 14.0 | 0.00 | 0.00 | 0.00 | 27 | 1001.9 |
| 20260508215557 | 69 | 316 | 7.0 | 16.0 | 0.00 | 0.00 | 0.00 | 26 | 1002.0 |
| 20260508215057 | 69 | 326 | 6.0 | 21.0 | 0.00 | 0.00 | 0.00 | 26 | 1002.0 |
| 20260508214558 | 69 | 336 | 8.0 | 21.0 | 0.00 | 0.00 | 0.00 | 26 | 1001.9 |
| 20260508214056 | 69 | 323 | 6.0 | 18.0 | 0.00 | 0.00 | 0.00 | 25 | 1002.0 |
| 20260508213554 | 69 | 332 | 8.0 | 18.0 | 0.00 | 0.00 | 0.00 | 25 | 1002.2 |
| 20260508213056 | 69 | 15 | 3.0 | 22.0 | 0.00 | 0.00 | 0.00 | 27 | 1002.2 |
| 20260508212554 | 68 | 330 | 8.0 | 22.0 | 0.00 | 0.00 | 0.00 | 27 | 1002.3 |
| 20260508212055 | 69 | 307 | 12.0 | 21.0 | 0.00 | 0.00 | 0.00 | 26 | 1002.2 |
| 20260508211553 | 69 | 277 | 11.0 | 21.0 | 0.00 | 0.00 | 0.00 | 26 | 1002.2 |
| 20260508211051 | 68 | 304 | 5.0 | 13.0 | 0.00 | 0.00 | 0.00 | 26 | 1002.5 |
| 20260508210551 | 68 | 337 | 5.0 | 17.0 | 0.00 | 0.00 | 0.00 | 26 | 1002.4 |
| 20260508210051 | 68 | 333 | 7.0 | 21.0 | 0.00 | 0.00 | 0.00 | 26 | 1002.5 |
| 20260508205550 | 67 | 307 | 12.0 | 21.0 | 0.00 | 0.00 | 0.00 | 28 | 1002.4 |
| 20260508205050 | 67 | 316 | 7.0 | 17.0 | 0.00 | 0.00 | 0.00 | 26 | 1002.7 |
| 20260508204600 | 68 | 266 | 10.0 | 16.0 | 0.00 | 0.00 | 0.00 | 25 | 1002.7 |
| 20260508204050 | 68 | 336 | 3.0 | 19.0 | 0.00 | 0.00 | 0.00 | 26 | 1002.8 |
| 20260508203547 | 68 | 328 | 10.0 | 19.0 | 0.00 | 0.00 | 0.00 | 29 | 1002.9 |
| 20260508203048 | 69 | 283 | 5.0 | 12.0 | 0.00 | 0.00 | 0.00 | 25 | 1002.9 |
| 20260508202545 | 69 | 279 | 5.0 | 12.0 | 0.00 | 0.00 | 0.00 | 26 | 1003.1 |
| 20260508202048 | 69 | 301 | 5.0 | 17.0 | 0.00 | 0.00 | 0.00 | 26 | 1003.3 |
| 20260508201546 | 68 | 217 | 7.0 | 17.0 | 0.00 | 0.00 | 0.00 | 26 | 1003.3 |
| 20260508201041 | 68 | 273 | 11.0 | 17.0 | 0.00 | 0.00 | 0.00 | 24 | 1003.3 |
| 20260508200541 | 67 | 56 | 4.0 | 11.0 | 0.00 | 0.00 | 0.00 | 26 | 1003.4 |
| 20260508200140 | 67 | 294 | 4.0 | 18.0 | 0.00 | 0.00 | 0.00 | 26 | 1003.6 |
| 20260508195539 | 67 | 293 | 10.0 | 18.0 | 0.00 | 0.00 | 0.00 | 25 | 1003.7 |
| 20260508195038 | 67 | 287 | 9.0 | 20.0 | 0.00 | 0.00 | 0.00 | 25 | 1003.7 |
| 20260508194539 | 67 | 274 | 14.0 | 20.0 | 0.00 | 0.00 | 0.00 | 26 | 1003.9 |
| 20260508194036 | 67 | 12 | 5.0 | 11.0 | 0.00 | 0.00 | 0.00 | 27 | 1004.0 |
| 20260508193538 | 66 | 250 | 3.0 | 14.0 | 0.00 | 0.00 | 0.00 | 27 | 1004.0 |
| 20260508193034 | 66 | 283 | 8.0 | 16.0 | 0.00 | 0.00 | 0.00 | 26 | 1004.1 |
| 20260508192533 | 65 | 23 | 6.0 | 16.0 | 0.00 | 0.00 | 0.00 | 27 | 1004.1 |
| 20260508192034 | 66 | 270 | 4.0 | 16.0 | 0.00 | 0.00 | 0.00 | 25 | 1004.2 |
| 20260508191533 | 65 | 278 | 5.0 | 18.0 | 0.00 | 0.00 | 0.00 | 25 | 1004.3 |
| 20260508191033 | 66 | 22 | 7.0 | 18.0 | 0.00 | 0.00 | 0.00 | 24 | 1004.4 |
| 20260508190534 | 66 | 300 | 4.0 | 14.0 | 0.00 | 0.00 | 0.00 | 25 | 1004.5 |
| 20260508190034 | 66 | 270 | 7.0 | 14.0 | 0.00 | 0.00 | 0.00 | 25 | 1004.4 |
| 20260508185532 | 65 | 290 | 3.0 | 14.0 | 0.00 | 0.00 | 0.00 | 25 | 1004.6 |
| 20260508185028 | 65 | 288 | 7.0 | 14.0 | 0.00 | 0.00 | 0.00 | 25 | 1004.7 |
| 20260508184539 | 65 | 270 | 8.0 | 16.0 | 0.00 | 0.00 | 0.00 | 26 | 1004.7 |
| 20260508184029 | 65 | 270 | 9.0 | 19.0 | 0.00 | 0.00 | 0.00 | 27 | 1004.8 |
| 20260508183526 | 65 | 290 | 13.0 | 19.0 | 0.00 | 0.00 | 0.00 | 25 | 1004.7 |
| 20260508183026 | 65 | 326 | 5.0 | 19.0 | 0.00 | 0.00 | 0.00 | 25 | 1004.9 |
| 20260508182528 | 65 | 279 | 9.0 | 15.0 | 0.00 | 0.00 | 0.00 | 27 | 1004.8 |
| 20260508182024 | 65 | 280 | 5.0 | 11.0 | 0.00 | 0.00 | 0.00 | 26 | 1005.0 |
| 20260508181532 | 64 | 290 | 4.0 | 9.0 | 0.00 | 0.00 | 0.00 | 27 | 1005.1 |
| 20260508181022 | 65 | 276 | 4.0 | 12.0 | 0.00 | 0.00 | 0.00 | 27 | 1005.2 |
| 20260508180522 | 65 | 295 | 7.0 | 15.0 | 0.00 | 0.00 | 0.00 | 27 | 1005.2 |
| 20260508180022 | 65 | 271 | 6.0 | 15.0 | 0.00 | 0.00 | 0.00 | 26 | 1005.2 |
| 20260508175522 | 65 | 328 | 4.0 | 13.0 | 0.00 | 0.00 | 0.00 | 28 | 1005.4 |
| 20260508175019 | 64 | 315 | 3.0 | 11.0 | 0.00 | 0.00 | 0.00 | 27 | 1005.4 |
| 20260508174530 | 65 | 287 | 6.0 | 11.0 | 0.00 | 0.00 | 0.00 | 25 | 1005.6 |
| 20260508174019 | 64 | 311 | 4.0 | 11.0 | 0.00 | 0.00 | 0.00 | 26 | 1005.6 |
| 20260508173517 | 64 | 278 | 4.0 | 13.0 | 0.00 | 0.00 | 0.00 | 27 | 1005.7 |
| 20260508173016 | 64 | 330 | 4.0 | 14.0 | 0.00 | 0.00 | 0.00 | 27 | 1005.8 |
| 20260508172514 | 64 | 274 | 8.0 | 13.0 | 0.00 | 0.00 | 0.00 | 26 | 1005.9 |
| 20260508172015 | 64 | 256 | 4.0 | 9.0 | 0.00 | 0.00 | 0.00 | 26 | 1006.0 |
| 20260508171512 | 64 | 349 | 2.0 | 11.0 | 0.00 | 0.00 | 0.00 | 26 | 1006.1 |
| 20260508171012 | 64 | 26 | 6.0 | 13.0 | 0.00 | 0.00 | 0.00 | 27 | 1006.3 |
| 20260508170510 | 63 | 26 | 5.0 | 14.0 | 0.00 | 0.00 | 0.00 | 27 | 1006.3 |
| 20260508170010 | 63 | 269 | 4.0 | 13.0 | 0.00 | 0.00 | 0.00 | 27 | 1006.3 |
| 20260508165508 | 63 | 281 | 4.0 | 11.0 | 0.00 | 0.00 | 0.00 | 27 | 1006.4 |
| 20260508165007 | 63 | 343 | 2.0 | 12.0 | 0.00 | 0.00 | 0.00 | 28 | 1006.4 |
| 20260508164507 | 62 | 328 | 5.0 | 12.0 | 0.00 | 0.00 | 0.00 | 28 | 1006.5 |
| 20260508164006 | 62 | 360 | 5.0 | 8.0 | 0.00 | 0.00 | 0.00 | 30 | 1006.6 |
| 20260508163504 | 62 | 337 | 2.0 | 7.0 | 0.00 | 0.00 | 0.00 | 30 | 1006.6 |
| 20260508163003 | 62 | 297 | 3.0 | 7.0 | 0.00 | 0.00 | 0.00 | 31 | 1006.7 |
| 20260508162503 | 62 | 281 | 3.0 | 6.0 | 0.00 | 0.00 | 0.00 | 30 | 1006.8 |
| 20260508162001 | 61 | 338 | 0.0 | 14.0 | 0.00 | 0.00 | 0.00 | 33 | 1006.7 |
| 20260508161502 | 60 | 298 | 6.0 | 14.0 | 0.00 | 0.00 | 0.00 | 31 | 1006.7 |
| 20260508161101 | 60 | 298 | 4.0 | 12.0 | 0.00 | 0.00 | 0.00 | 32 | 1006.7 |
| 20260508160603 | 59 | 323 | 3.0 | 11.0 | 0.00 | 0.00 | 0.00 | 32 | 1006.8 |
| 20260508160104 | 59 | 285 | 5.0 | 11.0 | 0.00 | 0.00 | 0.00 | 33 | 1007.0 |
| 20260508155556 | 59 | 294 | 5.0 | 11.0 | 0.00 | 0.00 | 0.00 | 34 | 1007.0 |
| 20260508155055 | 58 | 318 | 3.0 | 10.0 | 0.00 | 0.00 | 0.00 | 37 | 1007.1 |
| 20260508154554 | 58 | 288 | 5.0 | 10.0 | 0.00 | 0.00 | 0.00 | 36 | 1007.1 |
| 20260508154052 | 57 | 315 | 5.0 | 12.0 | 0.00 | 0.00 | 0.00 | 37 | 1007.1 |
| 20260508153551 | 56 | 278 | 7.0 | 12.0 | 0.00 | 0.00 | 0.00 | 37 | 1007.3 |
| 20260508153051 | 56 | 271 | 6.0 | 11.0 | 0.00 | 0.00 | 0.00 | 37 | 1007.2 |
| 20260508152551 | 55 | 250 | 5.0 | 12.0 | 0.00 | 0.00 | 0.00 | 39 | 1007.3 |
| 20260508152047 | 55 | 297 | 7.0 | 12.0 | 0.00 | 0.00 | 0.00 | 39 | 1007.3 |
| 20260508151547 | 55 | 281 | 5.0 | 11.0 | 0.00 | 0.00 | 0.00 | 39 | 1007.4 |
| 20260508151046 | 54 | 280 | 6.0 | 12.0 | 0.00 | 0.00 | 0.00 | 41 | 1007.5 |
| 20260508150543 | 54 | 273 | 5.0 | 12.0 | 0.00 | 0.00 | 0.00 | 40 | 1007.5 |
| 20260508150043 | 54 | 278 | 7.0 | 12.0 | 0.00 | 0.00 | 0.00 | 41 | 1007.6 |
| 20260508145542 | 53 | 282 | 8.0 | 13.0 | 0.00 | 0.00 | 0.00 | 41 | 1007.7 |
| 20260508145041 | 53 | 260 | 8.0 | 16.0 | 0.00 | 0.00 | 0.00 | 41 | 1007.6 |
| 20260508144541 | 53 | 287 | 10.0 | 16.0 | 0.00 | 0.00 | 0.00 | 41 | 1007.7 |
| 20260508144040 | 53 | 281 | 10.0 | 15.0 | 0.00 | 0.00 | 0.00 | 42 | 1007.8 |
| 20260508143540 | 53 | 284 | 10.0 | 16.0 | 0.00 | 0.00 | 0.00 | 43 | 1007.7 |
| 20260508143040 | 53 | 269 | 10.0 | 19.0 | 0.00 | 0.00 | 0.00 | 41 | 1007.8 |
| 20260508142540 | 53 | 285 | 11.0 | 19.0 | 0.00 | 0.00 | 0.00 | 41 | 1007.7 |
| 20260508142040 | 53 | 270 | 9.0 | 15.0 | 0.00 | 0.00 | 0.00 | 40 | 1007.8 |
| 20260508141545 | 53 | 284 | 9.0 | 13.0 | 0.00 | 0.00 | 0.00 | 42 | 1007.8 |
| 20260508141036 | 52 | 261 | 5.0 | 13.0 | 0.00 | 0.00 | 0.00 | 43 | 1007.8 |
| 20260508140535 | 52 | 269 | 5.0 | 7.0 | 0.00 | 0.00 | 0.00 | 44 | 1007.9 |
| 20260508140037 | 51 | 267 | 2.0 | 7.0 | 0.00 | 0.00 | 0.00 | 48 | 1008.0 |
| 20260508135533 | 51 | 314 | 1.0 | 10.0 | 0.00 | 0.00 | 0.00 | 48 | 1008.1 |
| 20260508135032 | 51 | 281 | 4.0 | 11.0 | 0.00 | 0.00 | 0.00 | 46 | 1008.2 |
| 20260508134534 | 50 | 294 | 6.0 | 11.0 | 0.00 | 0.00 | 0.00 | 46 | 1008.4 |
| 20260508134030 | 50 | 294 | 1.0 | 5.0 | 0.00 | 0.00 | 0.00 | 49 | 1008.4 |
| 20260508133530 | 49 | 318 | 2.0 | 6.0 | 0.00 | 0.00 | 0.00 | 48 | 1008.4 |
| 20260508133029 | 49 | 312 | 3.0 | 6.0 | 0.00 | 0.00 | 0.00 | 50 | 1008.3 |
| 20260508132529 | 49 | 270 | 0.0 | 4.0 | 0.00 | 0.00 | 0.00 | 51 | 1008.4 |
| 20260508132026 | 48 | 274 | 2.0 | 4.0 | 0.00 | 0.00 | 0.00 | 52 | 1008.3 |
| 20260508131525 | 48 | 288 | 0.0 | 3.0 | 0.00 | 0.00 | 0.00 | 54 | 1008.3 |
| 20260508131024 | 47 | 231 | 0.0 | 1.0 | 0.00 | 0.00 | 0.00 | 56 | 1008.3 |
| 20260508130521 | 47 | 228 | 0.0 | 1.0 | 0.00 | 0.00 | 0.00 | 56 | 1008.3 |
| 20260508130020 | 46 | 341 | 0.0 | 1.0 | 0.00 | 0.00 | 0.00 | 56 | 1008.4 |
| 20260508125519 | 46 | 281 | 0.0 | 3.0 | 0.00 | 0.00 | 0.00 | 56 | 1008.4 |
| 20260508125018 | 45 | 297 | 0.0 | 3.0 | 0.00 | 0.00 | 0.00 | 55 | 1008.3 |
| 20260508124519 | 45 | 270 | 0.0 | 3.0 | 0.00 | 0.00 | 0.00 | 56 | 1008.3 |
| 20260508124018 | 45 | 273 | 1.0 | 3.0 | 0.00 | 0.00 | 0.00 | 55 | 1008.3 |
| 20260508123522 | 45 | 273 | 0.0 | 3.0 | 0.00 | 0.00 | 0.00 | 57 | 1008.3 |
| 20260508123024 | 44 | 276 | 0.0 | 3.0 | 0.00 | 0.00 | 0.00 | 56 | 1008.4 |
| 20260508122517 | 44 | 283 | 1.0 | 3.0 | 0.00 | 0.00 | 0.00 | 59 | 1008.4 |
| 20260508122016 | 43 | 283 | 1.0 | 3.0 | 0.00 | 0.00 | 0.00 | 57 | 1008.4 |
| 20260508121519 | 43 | 288 | 0.0 | 3.0 | 0.00 | 0.00 | 0.00 | 56 | 1008.3 |
| 20260508121015 | 43 | 276 | 1.0 | 3.0 | 0.00 | 0.00 | 0.00 | 55 | 1008.3 |
| 20260508120515 | 42 | 282 | 1.0 | 3.0 | 0.00 | 0.00 | 0.00 | 55 | 1008.3 |
| 20260508120015 | 42 | 286 | 1.0 | 3.0 | 0.00 | 0.00 | 0.00 | 55 | 1008.3 |
| 20260508115515 | 41 | 283 | 0.0 | 1.0 | 0.00 | 0.00 | 0.00 | 55 | 1008.3 |